| time (UTC) | temp F | wind direction | speed MPH | gust MPH | rain 1hr in | rain 24hr in | rain mn in | humidity % | barometer mb |
| 20260508230309 | 51 | 239 | 4.0 | 8.0 | 0.06 | 0.13 | 0.13 | 90 | 1008.5 |
| 20260508225308 | 51 | 248 | 3.0 | 5.0 | 0.06 | 0.12 | 0.12 | 90 | 1008.9 |
| 20260508224307 | 51 | 267 | 2.0 | 4.0 | 0.06 | 0.11 | 0.11 | 90 | 1008.9 |
| 20260508223306 | 51 | 241 | 2.0 | 5.0 | 0.06 | 0.10 | 0.10 | 89 | 1008.9 |
| 20260508222234 | 52 | 248 | 2.0 | 5.0 | 0.06 | 0.09 | 0.09 | 88 | 1008.9 |
| 20260508221233 | 52 | 254 | 3.0 | 5.0 | 0.04 | 0.07 | 0.07 | 88 | 1008.9 |
| 20260508220232 | 52 | 281 | 1.0 | 4.0 | 0.04 | 0.07 | 0.07 | 88 | 1008.9 |
| 20260508215200 | 51 | 294 | 2.0 | 4.0 | 0.04 | 0.06 | 0.06 | 87 | 1009.0 |
| 20260508214159 | 52 | 322 | 2.0 | 3.0 | 0.03 | 0.05 | 0.05 | 87 | 1008.9 |
| 20260508213158 | 52 | 291 | 2.0 | 5.0 | 0.03 | 0.04 | 0.04 | 88 | 1008.9 |
| 20260508212125 | 52 | 297 | 3.0 | 6.0 | 0.03 | 0.03 | 0.03 | 87 | 1008.9 |
| 20260508211053 | 52 | 244 | 1.0 | 6.0 | 0.03 | 0.03 | 0.03 | 87 | 1008.6 |
| 20260508210021 | 52 | 258 | 2.0 | 6.0 | 0.03 | 0.03 | 0.03 | 87 | 1008.9 |
| 20260508205020 | 52 | 234 | 2.0 | 9.0 | 0.02 | 0.02 | 0.02 | 87 | 1008.9 |
| 20260508204018 | 52 | 268 | 5.0 | 9.0 | 0.02 | 0.02 | 0.02 | 86 | 1009.5 |
| 20260508202946 | 52 | 285 | 5.0 | 7.0 | 0.01 | 0.01 | 0.01 | 87 | 1009.5 |
| 20260508201946 | 52 | 306 | 3.0 | 10.0 | 0.00 | 0.00 | 0.00 | 86 | 1009.5 |
| 20260508200945 | 52 | 277 | 6.0 | 14.0 | 0.00 | 0.00 | 0.00 | 84 | 1009.9 |
| 20260508195944 | 52 | 281 | 6.0 | 15.0 | 0.00 | 0.00 | 0.00 | 83 | 1010.2 |
| 20260508194944 | 53 | 292 | 9.0 | 16.0 | 0.00 | 0.00 | 0.00 | 81 | 1010.6 |
| 20260508193943 | 54 | 277 | 11.0 | 18.0 | 0.00 | 0.00 | 0.00 | 81 | 1010.6 |
| 20260508192840 | 55 | 280 | 12.0 | 18.0 | 0.00 | 0.00 | 0.00 | 75 | 1010.6 |
| 20260508191839 | 56 | 271 | 10.0 | 19.0 | 0.00 | 0.00 | 0.00 | 73 | 1010.7 |
| 20260508190839 | 58 | 269 | 8.0 | 13.0 | 0.00 | 0.00 | 0.00 | 72 | 1010.8 |
| 20260508185838 | 56 | 266 | 6.0 | 13.0 | 0.00 | 0.00 | 0.00 | 74 | 1010.4 |
| 20260508184837 | 56 | 260 | 4.0 | 14.0 | 0.00 | 0.00 | 0.00 | 74 | 1010.4 |
| 20260508183836 | 57 | 277 | 7.0 | 14.0 | 0.00 | 0.00 | 0.00 | 70 | 1010.8 |
| 20260508182836 | 58 | 263 | 8.0 | 16.0 | 0.00 | 0.00 | 0.00 | 70 | 1010.8 |
| 20260508181835 | 58 | 292 | 10.0 | 16.0 | 0.00 | 0.00 | 0.00 | 70 | 1010.8 |
| 20260508180834 | 58 | 284 | 9.0 | 16.0 | 0.00 | 0.00 | 0.00 | 69 | 1010.8 |
| 20260508175834 | 57 | 261 | 8.0 | 16.0 | 0.00 | 0.00 | 0.00 | 70 | 1010.8 |
| 20260508174833 | 56 | 264 | 7.0 | 14.0 | 0.00 | 0.00 | 0.00 | 74 | 1011.4 |
| 20260508173832 | 55 | 286 | 9.0 | 14.0 | 0.00 | 0.00 | 0.00 | 74 | 1011.4 |
| 20260508172831 | 55 | 290 | 6.0 | 10.0 | 0.00 | 0.00 | 0.00 | 75 | 1011.7 |
| 20260508171831 | 54 | 286 | 7.0 | 14.0 | 0.00 | 0.00 | 0.00 | 75 | 1011.7 |
| 20260508170830 | 54 | 288 | 5.0 | 14.0 | 0.00 | 0.00 | 0.00 | 77 | 1011.6 |
| 20260508165830 | 55 | 299 | 7.0 | 15.0 | 0.00 | 0.00 | 0.00 | 73 | 1012.0 |
| 20260508164829 | 55 | 283 | 7.0 | 15.0 | 0.00 | 0.00 | 0.00 | 73 | 1012.0 |
| 20260508163828 | 55 | 308 | 12.0 | 15.0 | 0.00 | 0.00 | 0.00 | 70 | 1012.0 |
| 20260508162827 | 56 | 294 | 8.0 | 14.0 | 0.00 | 0.00 | 0.00 | 70 | 1012.0 |
| 20260508161826 | 56 | 314 | 8.0 | 13.0 | 0.00 | 0.00 | 0.00 | 68 | 1012.0 |
| 20260508160754 | 56 | 314 | 8.0 | 13.0 | 0.00 | 0.00 | 0.00 | 67 | 1012.1 |
| 20260508155753 | 56 | 308 | 9.0 | 16.0 | 0.00 | 0.00 | 0.00 | 67 | 1012.1 |
| 20260508154752 | 56 | 322 | 8.0 | 16.0 | 0.00 | 0.00 | 0.00 | 68 | 1012.1 |
| 20260508153751 | 57 | 304 | 11.0 | 16.0 | 0.00 | 0.00 | 0.00 | 66 | 1012.1 |
| 20260508152750 | 57 | 309 | 10.0 | 16.0 | 0.00 | 0.00 | 0.00 | 67 | 1012.1 |
| 20260508151749 | 57 | 325 | 10.0 | 16.0 | 0.00 | 0.00 | 0.00 | 65 | 1012.2 |
| 20260508150716 | 58 | 307 | 7.0 | 14.0 | 0.00 | 0.00 | 0.00 | 65 | 1012.2 |
| 20260508145715 | 58 | 311 | 9.0 | 14.0 | 0.00 | 0.00 | 0.00 | 67 | 1012.2 |
| 20260508144644 | 56 | 308 | 11.0 | 14.0 | 0.00 | 0.00 | 0.00 | 69 | 1012.1 |
| 20260508143612 | 56 | 309 | 9.0 | 14.0 | 0.00 | 0.00 | 0.00 | 68 | 1011.8 |
| 20260508142611 | 55 | 312 | 10.0 | 14.0 | 0.00 | 0.00 | 0.00 | 69 | 1012.1 |
| 20260508141507 | 56 | 326 | 6.0 | 12.0 | 0.00 | 0.00 | 0.00 | 69 | 1012.1 |
| 20260508140435 | 55 | 325 | 8.0 | 12.0 | 0.00 | 0.00 | 0.00 | 67 | 1012.1 |
| 20260508135435 | 54 | 321 | 5.0 | 12.0 | 0.00 | 0.00 | 0.00 | 69 | 1012.1 |
| 20260508134434 | 54 | 340 | 9.0 | 15.0 | 0.00 | 0.00 | 0.00 | 69 | 1012.0 |
| 20260508133402 | 54 | 338 | 9.0 | 16.0 | 0.00 | 0.00 | 0.00 | 68 | 1012.0 |
| 20260508132401 | 54 | 319 | 9.0 | 16.0 | 0.00 | 0.00 | 0.00 | 68 | 1012.3 |
| 20260508131400 | 53 | 339 | 9.0 | 15.0 | 0.00 | 0.00 | 0.00 | 69 | 1012.0 |
| 20260508130359 | 53 | 331 | 9.0 | 16.0 | 0.00 | 0.00 | 0.00 | 69 | 1012.3 |
| 20260508125359 | 52 | 311 | 12.0 | 16.0 | 0.00 | 0.00 | 0.00 | 69 | 1012.3 |
| 20260508124358 | 52 | 323 | 9.0 | 14.0 | 0.00 | 0.00 | 0.00 | 69 | 1012.3 |
| 20260508123357 | 52 | 322 | 9.0 | 14.0 | 0.00 | 0.00 | 0.00 | 70 | 1012.4 |
| 20260508122356 | 51 | 304 | 7.0 | 12.0 | 0.00 | 0.00 | 0.00 | 71 | 1012.4 |
| 20260508121355 | 50 | 315 | 7.0 | 13.0 | 0.00 | 0.00 | 0.00 | 71 | 1012.0 |
| 20260508120354 | 49 | 302 | 5.0 | 11.0 | 0.00 | 0.00 | 0.00 | 73 | 1012.0 |
| 20260508115321 | 49 | 288 | 6.0 | 10.0 | 0.00 | 0.00 | 0.00 | 75 | 1012.0 |
| 20260508114321 | 48 | 278 | 5.0 | 10.0 | 0.00 | 0.00 | 0.00 | 78 | 1011.6 |
| 20260508113320 | 47 | 264 | 4.0 | 9.0 | 0.00 | 0.00 | 0.00 | 79 | 1011.3 |
| 20260508112146 | 46 | 267 | 4.0 | 8.0 | 0.00 | 0.00 | 0.00 | 81 | 1011.6 |
| 20260508111145 | 46 | 271 | 4.0 | 8.0 | 0.00 | 0.00 | 0.00 | 81 | 1011.6 |
| 20260508110144 | 46 | 267 | 4.0 | 8.0 | 0.00 | 0.00 | 0.00 | 81 | 1011.3 |
| 20260508105143 | 47 | 278 | 4.0 | 6.0 | 0.00 | 0.00 | 0.00 | 80 | 1011.3 |
| 20260508104143 | 46 | 278 | 3.0 | 10.0 | 0.00 | 0.00 | 0.00 | 82 | 1011.3 |
| 20260508103142 | 47 | 281 | 5.0 | 15.0 | 0.00 | 0.00 | 0.00 | 79 | 1011.4 |
| 20260508102141 | 48 | 304 | 7.0 | 20.0 | 0.00 | 0.00 | 0.00 | 78 | 1011.4 |
| 20260508101109 | 48 | 298 | 16.0 | 21.0 | 0.00 | 0.00 | 0.00 | 75 | 1011.1 |
| 20260508100037 | 49 | 296 | 12.0 | 19.0 | 0.00 | 0.00 | 0.00 | 75 | 1011.8 |
| 20260508095036 | 49 | 291 | 12.0 | 19.0 | 0.00 | 0.00 | 0.00 | 72 | 1011.8 |
| 20260508094035 | 48 | 293 | 6.0 | 10.0 | 0.00 | 0.00 | 0.00 | 74 | 1011.8 |
| 20260508093035 | 48 | 284 | 4.0 | 9.0 | 0.00 | 0.00 | 0.00 | 75 | 1011.4 |
| 20260508092034 | 48 | 288 | 4.0 | 9.0 | 0.00 | 0.00 | 0.00 | 75 | 1011.4 |
| 20260508091033 | 48 | 298 | 4.0 | 10.0 | 0.00 | 0.00 | 0.00 | 75 | 1011.8 |
| 20260508090032 | 48 | 300 | 5.0 | 10.0 | 0.00 | 0.00 | 0.00 | 75 | 1011.4 |
| 20260508085031 | 47 | 283 | 5.0 | 8.0 | 0.00 | 0.00 | 0.00 | 78 | 1011.3 |
| 20260508084030 | 46 | 291 | 4.0 | 9.0 | 0.00 | 0.00 | 0.00 | 77 | 1011.7 |
| 20260508083030 | 46 | 288 | 5.0 | 10.0 | 0.00 | 0.00 | 0.00 | 78 | 1011.7 |
| 20260508082029 | 45 | 287 | 4.0 | 8.0 | 0.00 | 0.00 | 0.00 | 79 | 1012.0 |
| 20260508081028 | 45 | 282 | 4.0 | 10.0 | 0.00 | 0.00 | 0.00 | 80 | 1011.7 |
| 20260508080027 | 45 | 286 | 4.0 | 10.0 | 0.00 | 0.00 | 0.00 | 80 | 1011.6 |
| 20260508074924 | 45 | 266 | 6.0 | 9.0 | 0.00 | 0.00 | 0.00 | 80 | 1011.6 |
| 20260508073923 | 46 | 258 | 3.0 | 9.0 | 0.00 | 0.00 | 0.00 | 80 | 1011.6 |
| 20260508072922 | 46 | 279 | 5.0 | 10.0 | 0.00 | 0.00 | 0.00 | 79 | 1012.0 |
| 20260508071921 | 46 | 283 | 6.0 | 11.0 | 0.00 | 0.00 | 0.00 | 78 | 1012.0 |
| 20260508070920 | 46 | 278 | 8.0 | 12.0 | 0.00 | 0.00 | 0.00 | 78 | 1012.0 |
| 20260508065919 | 47 | 279 | 6.0 | 11.0 | 0.00 | 0.00 | 0.00 | 78 | 1012.1 |
| 20260508064917 | 47 | 290 | 6.0 | 15.0 | 0.00 | 0.00 | 0.00 | 76 | 1012.1 |
| 20260508063917 | 48 | 291 | 10.0 | 18.0 | 0.00 | 0.00 | 0.00 | 74 | 1012.1 |
| 20260508062916 | 48 | 288 | 9.0 | 24.0 | 0.00 | 0.00 | 0.00 | 74 | 1012.4 |
| 20260508061915 | 49 | 291 | 13.0 | 24.0 | 0.00 | 0.00 | 0.00 | 71 | 1011.7 |
| 20260508060843 | 49 | 272 | 11.0 | 18.0 | 0.00 | 0.00 | 0.00 | 68 | 1012.1 |
| 20260508055842 | 48 | 270 | 6.0 | 11.0 | 0.00 | 0.00 | 0.00 | 67 | 1012.0 |
| 20260508054841 | 48 | 273 | 6.0 | 10.0 | 0.00 | 0.00 | 0.00 | 70 | 1012.3 |
| 20260508053841 | 47 | 263 | 3.0 | 8.0 | 0.00 | 0.00 | 0.00 | 71 | 1012.3 |
| 20260508052738 | 47 | 256 | 3.0 | 5.0 | 0.00 | 0.00 | 0.00 | 73 | 1012.3 |
| 20260508051737 | 47 | 246 | 1.0 | 4.0 | 0.00 | 0.00 | 0.00 | 73 | 1012.6 |
| 20260508050736 | 47 | 235 | 2.0 | 4.0 | 0.00 | 0.00 | 0.00 | 72 | 1012.7 |
| 20260508045735 | 47 | 242 | 2.0 | 5.0 | 0.00 | 0.00 | 0.00 | 71 | 1012.7 |
| 20260508044734 | 46 | 256 | 2.0 | 5.0 | 0.00 | 0.00 | 0.00 | 72 | 1013.0 |
| 20260508043734 | 47 | 261 | 1.0 | 2.0 | 0.00 | 0.00 | 0.00 | 72 | 1012.7 |
| 20260508042733 | 47 | 261 | 1.0 | 5.0 | 0.00 | 0.00 | 0.00 | 70 | 1012.7 |
| 20260508041732 | 48 | 266 | 2.0 | 6.0 | 0.00 | 0.00 | 0.00 | 69 | 1012.7 |
| 20260508040700 | 48 | 266 | 4.0 | 6.0 | 0.00 | 0.00 | 0.00 | 68 | 1012.7 |
| 20260508035658 | 48 | 266 | 3.0 | 10.0 | 0.00 | 0.00 | 0.00 | 66 | 1012.7 |
| 20260508034657 | 49 | 285 | 3.0 | 10.0 | 0.00 | 0.00 | 0.00 | 65 | 1013.0 |
| 20260508033656 | 49 | 283 | 5.0 | 10.0 | 0.00 | 0.00 | 0.00 | 64 | 1013.0 |
| 20260508032655 | 49 | 288 | 4.0 | 13.0 | 0.00 | 0.00 | 0.00 | 63 | 1013.0 |
| 20260508031654 | 49 | 290 | 4.0 | 13.0 | 0.00 | 0.00 | 0.00 | 62 | 1013.0 |
| 20260508030654 | 49 | 288 | 5.0 | 13.0 | 0.00 | 0.00 | 0.00 | 61 | 1013.0 |
| 20260508025653 | 50 | 282 | 8.0 | 14.0 | 0.00 | 0.00 | 0.00 | 61 | 1013.0 |
| 20260508024652 | 50 | 297 | 9.0 | 16.0 | 0.00 | 0.00 | 0.00 | 59 | 1013.3 |
| 20260508023620 | 50 | 308 | 9.0 | 16.0 | 0.00 | 0.00 | 0.00 | 58 | 1013.3 |
| 20260508022619 | 50 | 293 | 7.0 | 14.0 | 0.00 | 0.00 | 0.00 | 56 | 1013.0 |
| 20260508021547 | 50 | 306 | 5.0 | 8.0 | 0.00 | 0.00 | 0.00 | 57 | 1013.0 |
| 20260508020545 | 50 | 296 | 2.0 | 9.0 | 0.00 | 0.00 | 0.00 | 58 | 1012.9 |
| 20260508015545 | 49 | 280 | 5.0 | 8.0 | 0.00 | 0.00 | 0.00 | 67 | 1012.6 |
| 20260508014544 | 49 | 282 | 2.0 | 7.0 | 0.00 | 0.00 | 0.00 | 67 | 1012.6 |
| 20260508013543 | 49 | 323 | 1.0 | 9.0 | 0.00 | 0.00 | 0.00 | 69 | 1012.5 |
| 20260508012542 | 48 | 201 | 5.0 | 9.0 | 0.00 | 0.00 | 0.00 | 69 | 1012.1 |
| 20260508011541 | 48 | 18 | 0.0 | 1.0 | 0.00 | 0.00 | 0.00 | 73 | 1012.1 |
| 20260508010540 | 48 | 18 | 0.0 | 2.0 | 0.00 | 0.00 | 0.00 | 73 | 1012.1 |
| 20260508005539 | 49 | 18 | 2.0 | 2.0 | 0.00 | 0.00 | 0.00 | 62 | 1012.1 |
| 20260508004508 | 50 | 18 | 0.0 | 0.0 | 0.00 | 0.00 | 0.00 | 62 | 1011.8 |
| 20260508003507 | 51 | 18 | 0.0 | 2.0 | 0.00 | 0.00 | 0.00 | 56 | 1012.1 |
| 20260508002506 | 52 | 18 | 2.0 | 4.0 | 0.00 | 0.00 | 0.00 | 56 | 1011.8 |
| 20260508001506 | 53 | 16 | 1.0 | 4.0 | 0.00 | 0.00 | 0.00 | 57 | 1011.8 |
| 20260508000434 | 54 | 22 | 2.0 | 4.0 | 0.00 | 0.00 | 0.00 | 50 | 1011.8 |
| 20260507235433 | 54 | 14 | 1.0 | 8.0 | 0.00 | 0.00 | 0.00 | 49 | 1011.8 |
| 20260507234432 | 54 | 27 | 4.0 | 9.0 | 0.00 | 0.00 | 0.00 | 47 | 1011.8 |
| 20260507233431 | 55 | 36 | 4.0 | 12.0 | 0.00 | 0.00 | 0.00 | 46 | 1011.8 |
| 20260507232430 | 55 | 3 | 5.0 | 12.0 | 0.00 | 0.00 | 0.00 | 48 | 1011.8 |
| 20260507231429 | 56 | 30 | 5.0 | 11.0 | 0.00 | 0.00 | 0.00 | 46 | 1011.8 |